Findlay, OH

10:37 PM EST on December 14, 2017 (GMT -0500)
Findlay

Weather History for KFDY - December, 2013

Change the Weather History Date:

Wednesday, December 18, 2013

  Actual Average Record
Temperature  
Mean Temperature 24 °F -  
Max Temperature 33 °F 33 °F 57 °F (1967)
Min Temperature 19 °F 21 °F -2 °F (1989)
Degree Days  
Heating Degree Days 40    
Moisture  
Dew Point 16 °F    
Average Humidity 73    
Maximum Humidity 84    
Minimum Humidity 56    
Precipitation  
Precipitation 0.00 in - - ()
Sea Level Pressure  
Sea Level Pressure 30.11 in    
Wind  
Wind Speed 13 mph (SW)    
Max Wind Speed 20 mph    
Max Gust Speed 30 mph    
Visibility 10 miles    
Events      
Averages and records for this station are not official NWS values.
T = Trace of Precipitation, MM = Missing Value Source: NWS Daily Summary

Daily Weather History Graph

Daily Weather History Graph

Search for Another Location

Airport or City:

Trip Planner

Search our weather history database for the weather conditions in past years. The results will help you decide how hot, cold, wet, or windy it might be!

Date:

Astronomy

Dec. 18, 2013 Rise Set
Actual Time 7:54 AM EST 5:08 PM EST
Civil Twilight 7:23 AM EST 5:39 PM EST
Nautical Twilight 6:48 AM EST 6:14 PM EST
Astronomical Twilight 6:15 AM EST 6:47 PM EST
Moon 6:40 PM EST (12/18) 8:33 AM EST (12/18)
Length of Visible Light 10h 16m
Length of Day
9h 13m
Full, 98% of the Moon is Illuminated
Dec 18
Full
Dec 25
Last Quarter
Jan 1
New
Jan 7
First Quarter
Jan 15
Full

Hourly Weather History & Observations

Time (EST) Temp. Windchill Dew Point Humidity Pressure Visibility Wind Dir Wind Speed Gust Speed Precip Events Conditions
12:53 AM 24.1 °F 13.1 °F 19.9 °F 84% 30.06 in 7.0 mi SW 11.5 mph - N/A   Clear
1:53 AM 23.0 °F 11.7 °F 18.0 °F 81% 30.06 in 9.0 mi SW 11.5 mph - N/A   Clear
2:53 AM 21.0 °F 9.3 °F 16.0 °F 81% 30.08 in 10.0 mi SW 11.5 mph - N/A   Clear
3:53 AM 19.9 °F 7.9 °F 15.1 °F 81% 30.09 in 10.0 mi WSW 11.5 mph - N/A   Scattered Clouds
4:53 AM 21.0 °F 8.6 °F 16.0 °F 81% 30.10 in 10.0 mi WSW 12.7 mph - N/A   Mostly Cloudy
5:53 AM 23.0 °F 9.2 °F 17.1 °F 78% 30.11 in 10.0 mi WSW 17.3 mph - N/A   Overcast
6:53 AM 23.0 °F 11.1 °F 17.1 °F 78% 30.12 in 10.0 mi WSW 12.7 mph - N/A   Overcast
7:53 AM 21.9 °F 10.4 °F 17.1 °F 82% 30.14 in 10.0 mi SW 11.5 mph - N/A   Overcast
8:53 AM 21.9 °F 9.8 °F 16.0 °F 78% 30.17 in 10.0 mi SW 12.7 mph - N/A   Overcast
9:53 AM 21.9 °F 11.0 °F 16.0 °F 78% 30.18 in 10.0 mi SW 10.4 mph - N/A   Partly Cloudy
10:53 AM 24.1 °F 13.1 °F 17.1 °F 75% 30.20 in 10.0 mi WSW 11.5 mph - N/A   Clear
11:53 AM 23.0 °F 11.1 °F 17.1 °F 78% 30.20 in 10.0 mi WSW 12.7 mph - N/A   Clear
12:53 PM 21.9 °F 10.4 °F 15.1 °F 75% 30.19 in 10.0 mi WSW 11.5 mph - N/A   Clear
1:53 PM 21.9 °F 9.2 °F 12.9 °F 68% 30.18 in 10.0 mi SW 13.8 mph - N/A   Clear
2:53 PM 23.0 °F 10.1 °F 12.9 °F 65% 30.16 in 10.0 mi SSW 15.0 mph - N/A   Clear
3:53 PM 23.0 °F 11.7 °F 15.1 °F 72% 30.16 in 10.0 mi SSW 11.5 mph - N/A   Clear
4:53 PM 21.9 °F 11.0 °F 14.0 °F 72% 30.15 in 10.0 mi South 10.4 mph - N/A   Clear
5:53 PM 19.9 °F 7.9 °F 12.9 °F 74% 30.12 in 10.0 mi South 11.5 mph - N/A   Clear
6:53 PM 21.9 °F 9.2 °F 12.9 °F 68% 30.09 in 10.0 mi South 13.8 mph - N/A   Clear
7:53 PM 23.0 °F 10.1 °F 12.9 °F 65% 30.05 in 10.0 mi SSE 15.0 mph - N/A   Clear
8:53 PM 23.0 °F 9.6 °F 14.0 °F 68% 30.01 in 10.0 mi South 16.1 mph - N/A   Clear
9:53 PM 28.9 °F 16.5 °F 16.0 °F 58% 29.99 in 10.0 mi South 18.4 mph 23.0 mph N/A   Clear
10:53 PM 30.0 °F 17.9 °F 17.1 °F 59% 29.97 in 10.0 mi South 18.4 mph - N/A   Clear
11:53 PM 33.1 °F 21.5 °F 19.0 °F 56% 29.96 in 10.0 mi SSW 19.6 mph 29.9 mph N/A   Clear